Location: Newark
(45.8667°N, 9.7333°E)
Time: 21:07:39
(UTC+00:00)

Vanguard 2 Rocket - Pass Details

Date: 26 January 2020
Orbit: 553 x 3327 km, 32.9° (Epoch: 23 February)

Event Time Altitude Azimuth Distance (km) Brightness Sun altitude
Rises 08:47:43 0° 257° (WSW) 3,703 9.8 15.2°
Reaches altitude 10° 08:50:42 10° 240° (WSW) 3,088 9.6 15.6°
Maximum altitude 08:56:14 21° 195° (SSW) 2,961 10.2 16.2°
Drops below altitude 10° 09:04:02 10° 153° (SSE) 4,565 12.7 17.0°
Sets 09:09:54 0° 141° (SE) 6,123 12.9 17.6°
